EW3370 Weather Reports


Display with metric or nautical units.
time (UTC)temp
F
wind
direction
speed
MPH
gust
MPH
rain 1hr
in
rain 24hr
in
rain mn
in
humidity
%
barometer
mb
20260510190520 72 250 4.0 7.0 0.00 0.00 0.00 70 1013.3
20260510190023 71 301 3.0 8.0 0.00 0.00 0.00 71 1013.4
20260510185527 71 284 4.0 9.0 0.00 0.00 0.00 70 1013.4
20260510185034 71 252 4.0 9.0 0.00 0.00 0.00 71 1013.4
20260510184530 71 258 5.0 9.0 0.00 0.00 0.00 71 1013.3
20260510184028 71 317 3.0 9.0 0.00 0.00 0.00 72 1013.3
20260510183537 71 249 4.0 9.0 0.00 0.00 0.00 71 1013.3
20260510183102 71 268 3.0 9.0 0.00 0.00 0.00 71 1013.4
20260510182546 71 249 4.0 9.0 0.00 0.00 0.00 71 1013.3
20260510182024 71 306 3.0 8.0 0.00 0.00 0.00 72 1013.4
20260510181526 71 244 4.0 8.0 0.00 0.00 0.00 73 1013.4
20260510181032 70 265 3.0 8.0 0.00 0.00 0.00 73 1013.3
20260510180559 71 254 4.0 7.0 0.00 0.00 0.00 73 1013.3
20260510180043 70 260 3.0 8.0 0.00 0.00 0.00 72 1013.3
20260510175524 70 274 3.0 8.0 0.00 0.00 0.00 73 1013.3
20260510175026 70 324 4.0 7.0 0.00 0.00 0.00 74 1013.4
20260510174530 70 248 3.0 7.0 0.00 0.00 0.00 74 1013.3
20260510174055 70 271 3.0 7.0 0.00 0.00 0.00 75 1013.4
20260510173558 69 263 3.0 9.0 0.00 0.00 0.00 76 1013.4
20260510173039 69 303 4.0 9.0 0.00 0.00 0.00 76 1013.4
20260510172523 69 259 3.0 8.0 0.00 0.00 0.00 76 1013.3
20260510172031 69 286 3.0 10.0 0.00 0.00 0.00 76 1013.2
20260510171525 69 275 3.0 10.0 0.00 0.00 0.00 76 1013.2
20260510171053 69 271 5.0 9.0 0.00 0.00 0.00 76 1013.3
20260510170523 69 248 3.0 7.0 0.00 0.00 0.00 77 1013.2
20260510170030 69 269 3.0 7.0 0.00 0.00 0.00 77 1013.1
20260510165532 69 288 3.0 8.0 0.00 0.00 0.00 77 1013.2
20260510165038 69 302 3.0 8.0 0.00 0.00 0.00 77 1013.1
20260510164521 68 279 3.0 8.0 0.00 0.00 0.00 77 1013.1
20260510164022 68 261 2.0 6.0 0.00 0.00 0.00 78 1013.1
20260510163525 68 309 1.0 4.0 0.00 0.00 0.00 79 1013.1
20260510163027 67 321 0.0 3.0 0.00 0.00 0.00 80 1013.1
20260510162527 66 44 1.0 2.0 0.00 0.00 0.00 81 1013.0
20260510162035 65 44 0.0 1.0 0.00 0.00 0.00 83 1013.0
20260510161546 64 44 0.0 4.0 0.00 0.00 0.00 83 1012.9
20260510161025 64 44 1.0 4.0 0.00 0.00 0.00 83 1012.9
20260510160530 64 44 1.0 4.0 0.00 0.00 0.00 84 1012.9
20260510160033 64 45 0.0 3.0 0.00 0.00 0.00 84 1012.9
20260510155538 64 45 0.0 3.0 0.00 0.00 0.00 84 1012.8
20260510155022 63 45 1.0 3.0 0.00 0.00 0.00 85 1012.8
20260510154528 63 45 1.0 3.0 0.00 0.00 0.00 86 1012.8
20260510154054 63 45 1.0 4.0 0.00 0.00 0.00 86 1012.7
20260510153537 63 48 1.0 4.0 0.00 0.00 0.00 86 1012.8
20260510153043 63 49 2.0 4.0 0.00 0.00 0.00 86 1012.8
20260510152524 63 69 2.0 4.0 0.00 0.00 0.00 86 1012.8
20260510152029 62 69 0.0 6.0 0.00 0.00 0.00 86 1012.8
20260510151534 62 69 3.0 6.0 0.00 0.00 0.00 86 1012.7
20260510151100 62 57 1.0 4.0 0.00 0.00 0.00 87 1012.7
20260510150521 62 57 2.0 4.0 0.00 0.00 0.00 87 1012.7
20260510150030 62 43 1.0 4.0 0.00 0.00 0.00 87 1012.7
20260510145556 62 43 1.0 4.0 0.00 0.00 0.00 87 1012.7
20260510145038 62 25 2.0 5.0 0.00 0.00 0.00 88 1012.7
20260510144522 62 70 2.0 5.0 0.00 0.00 0.00 88 1012.6
20260510144030 62 82 3.0 6.0 0.00 0.00 0.00 88 1012.6
20260510143527 62 80 3.0 6.0 0.00 0.00 0.00 88 1012.6
20260510143026 62 63 3.0 6.0 0.00 0.00 0.00 88 1012.6
20260510142549 62 52 2.0 6.0 0.00 0.00 0.00 88 1012.5
20260510142029 62 44 2.0 6.0 0.00 0.00 0.00 88 1012.5
20260510141554 62 45 3.0 5.0 0.00 0.00 0.00 88 1012.4
20260510141036 62 82 2.0 6.0 0.00 0.00 0.00 88 1012.5
20260510140534 62 86 2.0 6.0 0.00 0.00 0.00 88 1012.4
20260510140029 62 57 3.0 4.0 0.00 0.00 0.00 88 1012.3
20260510135557 62 44 1.0 4.0 0.00 0.00 0.00 88 1012.3
20260510135031 62 55 2.0 4.0 0.00 0.00 0.00 88 1012.3
20260510134529 62 22 1.0 3.0 0.00 0.00 0.00 88 1012.2
20260510134027 62 22 1.0 3.0 0.00 0.00 0.00 88 1012.2
20260510133540 62 22 1.0 3.0 0.00 0.00 0.00 88 1012.2
20260510133035 62 22 1.0 4.0 0.00 0.00 0.00 88 1012.1
20260510132528 62 22 2.0 4.0 0.00 0.00 0.00 88 1012.1
20260510132028 62 21 1.0 3.0 0.00 0.00 0.00 88 1012.1
20260510131527 62 21 1.0 3.0 0.00 0.00 0.00 88 1012.0
20260510131028 62 21 1.0 3.0 0.00 0.00 0.00 88 1012.0
20260510130613 62 21 2.0 3.0 0.00 0.00 0.00 88 1012.0
20260510130036 62 21 1.0 2.0 0.00 0.00 0.00 88 1012.0
20260510125538 62 20 0.0 3.0 0.00 0.00 0.00 88 1012.0
20260510125022 62 20 1.0 4.0 0.00 0.00 0.00 87 1011.9
20260510124522 62 20 2.0 4.0 0.00 0.00 0.00 87 1011.9
20260510124041 62 20 2.0 4.0 0.00 0.00 0.00 87 1011.9
20260510123527 62 355 1.0 4.0 0.00 0.00 0.00 87 1011.9
20260510123029 62 355 1.0 4.0 0.00 0.00 0.00 88 1011.9
20260510122527 62 345 1.0 4.0 0.00 0.00 0.00 88 1011.9
20260510122052 62 258 1.0 2.0 0.00 0.00 0.00 88 1011.9
20260510121534 62 258 0.0 2.0 0.00 0.00 0.00 88 1011.9
20260510121040 62 258 0.0 2.0 0.00 0.00 0.00 88 1011.9
20260510120519 62 258 0.0 1.0 0.00 0.00 0.00 88 1011.9
20260510120025 62 258 0.0 2.0 0.00 0.00 0.00 88 1011.9
20260510115524 62 258 0.0 2.0 0.00 0.00 0.00 88 1011.9
20260510115027 62 258 0.0 2.0 0.00 0.00 0.00 88 1011.8
20260510114527 62 258 0.0 3.0 0.00 0.00 0.00 88 1011.9
20260510114054 62 258 1.0 3.0 0.00 0.00 0.00 88 1011.9
20260510113532 62 258 0.0 1.0 0.00 0.00 0.00 87 1011.9
20260510113039 62 258 0.0 2.0 0.00 0.00 0.00 87 1011.9
20260510112543 62 258 1.0 3.0 0.00 0.00 0.00 87 1011.9
20260510112019 63 258 1.0 3.0 0.00 0.00 0.00 87 1011.8
20260510111522 63 259 0.0 2.0 0.00 0.00 0.00 87 1011.9
20260510111023 63 259 1.0 2.0 0.00 0.00 0.00 87 1011.9
20260510110526 63 259 0.0 3.0 0.00 0.00 0.00 87 1011.9
20260510110022 63 259 0.0 3.0 0.00 0.00 0.00 87 1011.9
20260510105526 63 259 1.0 2.0 0.00 0.00 0.00 87 1012.0
20260510105028 63 259 0.0 1.0 0.00 0.00 0.00 87 1012.0
20260510104527 63 259 0.0 1.0 0.00 0.00 0.00 87 1011.9
20260510104037 63 259 0.0 0.0 0.00 0.00 0.00 87 1011.9
20260510103537 63 259 0.0 0.0 0.00 0.00 0.00 87 1011.9
20260510103037 63 259 0.0 2.0 0.00 0.00 0.00 87 1012.0
20260510102535 63 259 0.0 2.0 0.00 0.00 0.00 87 1012.0
20260510102043 63 259 0.0 2.0 0.00 0.00 0.00 87 1011.9
20260510101546 63 259 0.0 1.0 0.00 0.00 0.00 87 1012.0
20260510101032 63 259 0.0 1.0 0.00 0.00 0.00 87 1012.0
20260510100536 63 259 0.0 1.0 0.00 0.00 0.00 87 1012.0
20260510100045 63 259 0.0 2.0 0.00 0.00 0.00 87 1012.0
20260510095536 63 259 0.0 3.0 0.00 0.00 0.00 87 1012.0
20260510095044 63 259 0.0 3.0 0.00 0.00 0.00 87 1012.0
20260510094526 63 259 0.0 2.0 0.00 0.00 0.00 86 1011.9
20260510094033 63 259 0.0 2.0 0.00 0.00 0.00 86 1012.0
20260510093529 63 259 0.0 1.0 0.00 0.00 0.00 86 1012.1
20260510093027 63 259 0.0 1.0 0.00 0.00 0.00 86 1012.0
20260510092523 63 259 0.0 1.0 0.00 0.00 0.00 86 1012.1
20260510092048 63 259 0.0 1.0 0.00 0.00 0.00 86 1012.0
20260510091529 63 260 0.0 1.0 0.00 0.00 0.00 86 1012.1
20260510091134 63 260 0.0 1.0 0.00 0.00 0.00 86 1012.1
20260510090622 63 260 0.0 1.0 0.00 0.00 0.00 86 1012.1
20260510090057 63 260 0.0 3.0 0.00 0.00 0.00 86 1012.1
20260510085534 63 260 1.0 3.0 0.00 0.00 0.00 86 1012.2
20260510085021 63 178 0.0 3.0 0.00 0.00 0.00 86 1012.1
20260510084526 63 178 0.0 3.0 0.00 0.00 0.00 86 1012.2
20260510084027 63 178 1.0 3.0 0.00 0.00 0.00 86 1012.2
20260510083524 63 202 0.0 2.0 0.00 0.00 0.00 86 1012.2
20260510083024 63 202 0.0 1.0 0.00 0.00 0.00 86 1012.2
20260510082549 63 202 0.0 1.0 0.00 0.00 0.00 86 1012.2
20260510082025 63 202 0.0 1.0 0.00 0.00 0.00 86 1012.3
20260510081526 63 202 0.0 2.0 0.00 0.00 0.00 86 1012.3
20260510081031 63 202 0.0 2.0 0.00 0.00 0.00 86 1012.4
20260510080533 63 202 0.0 0.0 0.00 0.00 0.00 86 1012.4
20260510080034 63 202 0.0 0.0 0.00 0.00 0.00 86 1012.4
20260510075533 63 202 0.0 0.0 0.00 0.00 0.00 86 1012.5
20260510075059 63 202 0.0 0.0 0.00 0.00 0.00 86 1012.6
20260510074523 63 202 0.0 1.0 0.00 0.00 0.00 86 1012.5
20260510074024 63 202 0.0 1.0 0.00 0.00 0.00 86 1012.6
20260510073527 63 202 0.0 1.0 0.00 0.00 0.00 86 1012.6
20260510073034 63 202 0.0 2.0 0.00 0.00 0.00 86 1012.6
20260510072559 63 202 0.0 2.0 0.00 0.00 0.00 85 1012.6
20260510072021 63 202 1.0 2.0 0.00 0.00 0.00 85 1012.7
20260510071538 63 202 0.0 1.0 0.00 0.00 0.00 85 1012.7
20260510071024 63 202 0.0 3.0 0.00 0.00 0.00 85 1012.7
20260510070530 63 202 0.0 3.0 0.00 0.00 0.00 85 1012.7
20260510070032 63 254 0.0 2.0 0.00 0.00 0.00 85 1012.7
20260510065600 63 257 0.0 2.0 0.00 0.00 0.00 85 1012.8
20260510065041 63 257 0.0 1.0 0.00 0.00 0.00 85 1012.8
20260510064520 63 257 0.0 1.0 0.00 0.00 0.00 85 1012.7
20260510064021 63 257 0.0 1.0 0.00 0.00 0.00 85 1012.8
20260510063519 63 257 0.0 3.0 0.00 0.00 0.00 85 1012.9
20260510063027 63 257 0.0 3.0 0.00 0.00 0.00 85 1012.9
20260510062527 63 257 0.0 1.0 0.00 0.00 0.00 85 1012.9
20260510062025 63 257 0.0 0.0 0.00 0.00 0.00 85 1012.8
20260510061526 63 257 0.0 0.0 0.00 0.00 0.00 85 1012.8
20260510061032 63 257 0.0 1.0 0.00 0.00 0.00 85 1012.8
20260510060528 63 257 0.0 1.0 0.00 0.00 0.00 85 1012.7
20260510060054 63 257 0.0 1.0 0.00 0.00 0.00 85 1012.8
20260510055538 63 257 0.0 2.0 0.00 0.00 0.00 85 1012.8
20260510055022 63 257 0.0 3.0 0.00 0.00 0.00 85 1012.8
20260510054529 63 258 1.0 3.0 0.00 0.00 0.00 85 1012.7
20260510054032 63 257 0.0 2.0 0.00 0.00 0.00 85 1012.8
20260510053536 63 257 0.0 2.0 0.00 0.00 0.00 85 1012.7
20260510053041 63 257 0.0 2.0 0.00 0.00 0.00 85 1012.8
20260510052521 63 257 0.0 2.0 0.00 0.00 0.00 85 1012.8
20260510052023 63 257 0.0 2.0 0.00 0.00 0.00 85 1012.8
20260510051530 63 257 1.0 2.0 0.00 0.00 0.00 85 1012.8
20260510051034 63 258 0.0 2.0 0.00 0.00 0.00 85 1012.8
20260510050539 63 258 0.0 2.0 0.00 0.00 0.00 85 1012.8
20260510050040 63 259 1.0 4.0 0.00 0.00 0.00 85 1012.8
20260510045521 63 259 0.0 4.0 0.00 0.00 0.00 85 1012.9
20260510045040 63 258 1.0 3.0 0.00 0.00 0.00 84 1012.8
20260510044523 63 258 1.0 5.0 0.00 0.00 0.00 84 1012.7
20260510044041 63 258 1.0 5.0 0.00 0.00 0.00 84 1012.7
20260510043521 63 258 2.0 5.0 0.00 0.00 0.00 84 1012.7
20260510043022 63 251 1.0 3.0 0.00 0.00 0.00 84 1012.7
20260510042522 63 251 1.0 3.0 0.00 0.00 0.00 84 1012.6
20260510042026 63 238 2.0 6.0 0.00 0.00 0.00 84 1012.6
20260510041549 63 238 1.0 6.0 0.00 0.00 0.00 84 1012.6
20260510041026 63 257 0.0 4.0 0.00 0.00 0.00 84 1012.5
20260510040524 63 256 1.0 4.0 0.00 0.00 0.00 84 1012.5
20260510040034 64 256 1.0 4.0 0.00 0.00 0.00 84 1012.3
20260510035538 64 257 1.0 4.0 0.00 0.00 0.00 84 1012.3
20260510035036 64 259 1.0 4.0 0.00 0.00 0.00 84 1012.3
20260510034543 64 259 0.0 5.0 0.00 0.00 0.00 84 1012.4
20260510034022 64 259 1.0 5.0 0.00 0.00 0.00 84 1012.3
20260510033539 64 259 2.0 5.0 0.00 0.00 0.00 84 1012.2
20260510033034 64 250 2.0 5.0 0.00 0.00 0.00 84 1012.1
20260510032554 64 258 0.0 3.0 0.00 0.00 0.00 84 1012.1
20260510032026 64 257 1.0 5.0 0.00 0.00 0.00 84 1012.0
20260510031546 64 257 1.0 5.0 0.00 0.00 0.00 84 1012.0
20260510031047 64 254 2.0 5.0 0.00 0.00 0.00 83 1011.9
20260510030526 64 275 1.0 4.0 0.00 0.00 0.00 83 1011.8
20260510030045 64 275 1.0 5.0 0.00 0.00 0.00 83 1011.8
20260510025526 64 277 1.0 5.0 0.00 0.00 0.00 83 1011.8
20260510025033 64 228 0.0 3.0 0.00 0.00 0.00 82 1011.8
20260510024533 64 228 1.0 3.0 0.00 0.00 0.00 82 1011.7
20260510024034 64 228 1.0 3.0 0.00 0.00 0.00 82 1011.7
20260510023529 64 228 0.0 3.0 0.00 0.00 0.00 82 1011.6
20260510023030 64 270 1.0 4.0 0.00 0.00 0.00 82 1011.6
20260510022524 64 275 2.0 4.0 0.00 0.00 0.00 81 1011.7
20260510022022 65 253 1.0 4.0 0.00 0.00 0.00 81 1011.7
20260510021551 65 254 1.0 4.0 0.00 0.00 0.00 81 1011.6
20260510021031 65 254 2.0 6.0 0.00 0.00 0.00 81 1011.5
20260510020554 65 252 1.0 6.0 0.00 0.00 0.00 80 1011.4
20260510020035 65 243 1.0 6.0 0.00 0.00 0.00 80 1011.4
20260510015535 65 243 1.0 6.0 0.00 0.00 0.00 80 1011.5
20260510015023 65 251 2.0 4.0 0.00 0.00 0.00 80 1011.5
20260510014526 65 258 0.0 6.0 0.00 0.00 0.00 80 1011.6
20260510014034 66 258 2.0 7.0 0.00 0.00 0.00 79 1011.6
20260510013536 66 250 2.0 8.0 0.00 0.00 0.00 79 1011.5
20260510013035 66 236 3.0 8.0 0.00 0.00 0.00 79 1011.4
20260510012559 66 244 2.0 5.0 0.00 0.00 0.00 79 1011.4
20260510012022 66 248 2.0 7.0 0.00 0.00 0.00 78 1011.4
20260510011519 67 249 3.0 7.0 0.00 0.00 0.00 78 1011.4
20260510011025 67 242 0.0 5.0 0.00 0.00 0.00 78 1011.5
20260510010535 67 242 1.0 6.0 0.00 0.00 0.00 78 1011.6
20260510010037 67 250 3.0 6.0 0.00 0.00 0.00 78 1011.6
20260510005540 67 265 3.0 6.0 0.00 0.00 0.00 77 1011.5
20260510005024 67 258 2.0 6.0 0.00 0.00 0.00 77 1011.5
20260510004519 67 323 3.0 8.0 0.00 0.00 0.00 77 1011.5
20260510004019 67 221 4.0 8.0 0.00 0.00 0.00 77 1011.6
20260510003538 68 279 4.0 8.0 0.00 0.00 0.00 76 1011.7
20260510003023 68 257 4.0 8.0 0.00 0.00 0.00 76 1011.7
20260510002522 68 271 2.0 7.0 0.00 0.00 0.00 74 1011.7
20260510002046 69 266 2.0 6.0 0.00 0.00 0.00 74 1011.6
20260510001523 69 277 3.0 8.0 0.00 0.00 0.00 73 1011.7
20260510001023 70 236 3.0 9.0 0.00 0.00 0.00 73 1011.6
20260510000525 70 246 4.0 9.0 0.00 0.00 0.00 73 1011.4
20260510000023 70 269 3.0 8.0 0.00 0.00 0.00 72 1011.5
20260509235523 70 281 3.0 8.0 0.00 0.00 0.00 72 1011.4
20260509235026 70 276 4.0 8.0 0.00 0.00 0.00 72 1011.3
20260509234529 70 319 2.0 8.0 0.00 0.00 0.00 72 1011.3
20260509234031 70 286 3.0 8.0 0.00 0.00 0.00 73 1011.3
20260509233528 70 259 3.0 8.0 0.00 0.00 0.00 72 1011.4
20260509233030 70 253 4.0 8.0 0.00 0.00 0.00 72 1011.4
20260509232549 71 265 2.0 8.0 0.00 0.00 0.00 71 1011.4
20260509232034 71 276 4.0 8.0 0.00 0.00 0.00 70 1011.5
20260509231533 72 264 4.0 8.0 0.00 0.00 0.00 70 1011.5
20260509231034 72 247 3.0 7.0 0.00 0.00 0.00 70 1011.5
20260509230553 72 252 4.0 8.0 0.00 0.00 0.00 69 1011.6
20260509230040 72 258 4.0 10.0 0.00 0.00 0.00 69 1011.6
20260509225520 72 247 3.0 10.0 0.00 0.00 0.00 69 1011.5
20260509225027 73 247 4.0 8.0 0.00 0.00 0.00 68 1011.6
20260509224527 73 262 3.0 10.0 0.00 0.00 0.00 69 1011.6
20260509224034 73 246 5.0 10.0 0.00 0.00 0.00 68 1011.7
20260509223539 73 299 4.0 8.0 0.00 0.00 0.00 68 1011.7
20260509223038 73 263 4.0 9.0 0.00 0.00 0.00 68 1011.8
20260509222543 73 258 3.0 9.0 0.00 0.00 0.00 68 1011.8
20260509222026 73 252 2.0 9.0 0.00 0.00 0.00 69 1011.8
20260509221531 72 242 3.0 9.0 0.00 0.00 0.00 69 1011.8
20260509221032 72 259 5.0 8.0 0.00 0.00 0.00 69 1011.8
20260509220538 72 239 3.0 9.0 0.00 0.00 0.00 71 1011.9
20260509220037 71 280 5.0 13.0 0.00 0.00 0.00 71 1012.0
20260509215520 72 292 4.0 13.0 0.00 0.00 0.00 70 1012.0
20260509215023 72 262 3.0 10.0 0.00 0.00 0.00 70 1011.9
20260509214543 72 282 4.0 10.0 0.00 0.00 0.00 71 1011.9
20260509214028 71 246 4.0 8.0 0.00 0.00 0.00 71 1012.0
20260509213530 72 269 5.0 9.0 0.00 0.00 0.00 70 1012.1
20260509213025 71 270 5.0 9.0 0.00 0.00 0.00 72 1012.1
20260509212533 71 331 4.0 9.0 0.00 0.00 0.00 71 1012.2
20260509212057 71 267 5.0 9.0 0.00 0.00 0.00 71 1012.2
20260509211531 71 262 5.0 9.0 0.00 0.00 0.00 70 1012.2
20260509211035 71 279 4.0 9.0 0.00 0.00 0.00 70 1012.3
20260509210600 71 267 5.0 9.0 0.00 0.00 0.00 71 1012.4
20260509210022 71 232 4.0 9.0 0.00 0.00 0.00 71 1012.5
20260509205529 71 256 5.0 10.0 0.00 0.00 0.00 71 1012.5
20260509205035 71 284 4.0 10.0 0.00 0.00 0.00 71 1012.5
20260509204521 71 279 5.0 9.0 0.00 0.00 0.00 71 1012.6
20260509204023 71 267 5.0 9.0 0.00 0.00 0.00 71 1012.6
20260509203526 71 276 5.0 9.0 0.00 0.00 0.00 71 1012.6
20260509203031 71 258 4.0 11.0 0.00 0.00 0.00 71 1012.7
20260509202532 72 252 5.0 11.0 0.00 0.00 0.00 69 1012.8
20260509202034 72 242 5.0 10.0 0.00 0.00 0.00 68 1012.7
20260509201522 72 300 4.0 9.0 0.00 0.00 0.00 68 1012.7
20260509201029 73 261 4.0 11.0 0.00 0.00 0.00 69 1012.8
20260509200557 72 240 4.0 11.0 0.00 0.00 0.00 69 1012.7
20260509200100 72 306 4.0 11.0 0.00 0.00 0.00 69 1012.8
20260509195544 72 289 5.0 10.0 0.00 0.00 0.00 69 1012.8
20260509195028 72 292 4.0 11.0 0.00 0.00 0.00 69 1012.8
20260509194530 72 277 5.0 11.0 0.00 0.00 0.00 70 1012.8
20260509194033 72 252 5.0 12.0 0.00 0.00 0.00 69 1012.8
20260509193538 72 313 4.0 12.0 0.00 0.00 0.00 70 1012.8
20260509193022 72 272 5.0 12.0 0.00 0.00 0.00 69 1012.9
20260509192527 72 281 5.0 12.0 0.00 0.00 0.00 70 1012.8
20260509192033 72 254 4.0 12.0 0.00 0.00 0.00 71 1012.8
20260509191522 72 246 6.0 11.0 0.00 0.00 0.00 70 1012.9
20260509191028 72 261 5.0 11.0 0.00 0.00 0.00 70 1012.9